This demonstration page uses our WeatherBlox Daily Observations layout. Learn more.

Left ArrowRight Arrow

34.16533, -84.80231

Hourly Observations for July 10, 2017

Temp ( °F °C ) Dew Point ( °F °C ) Humidity (%) Winds ( mph kmh ) Pressure ( in mb ) Visibility ( mi km ) Precip ( " mm )
12:53 am 00:53 Mostly Clear 67 19.4 67 19.4 100 100 Calm 30.04 1017 10 16 0.00 0.00
1:53 am 01:53 Mostly Cloudy 66 18.9 66 18.9 100 100 Calm 30.04 1017 10 16 0.00 0.00
2:53 am 02:53 Partly Cloudy 67 19.4 67 19.4 100 100 Calm 30.03 1017 10 16 0.00 0.00
3:53 am 03:53 Mostly Clear 65 18.3 65 18.3 100 100 Calm 30.03 1017 9 14 0.00 0.00
4:53 am 04:53 Clear 64 17.8 64 17.8 100 100 Calm 30.02 1017 10 16 0.00 0.00
5:53 am 05:53 Clear 65 18.3 65 18.3 100 100 Calm 30.03 1017 9 14 0.00 0.00
6:53 am 06:53 Cloudy 65 18.3 65 18.3 100 100 Calm 30.05 1018 8 13 0.00 0.00
7:03 am 07:03 Mostly Cloudy 65 18.3 65 18.3 100 100 Calm 30.06 1018 8 13 0.00 0.00
7:53 am 07:53 Cloudy 67 19.4 67 19.4 100 100 Calm 30.06 1018 10 16 0.00 0.00
8:53 am 08:53 Cloudy 68 20 68 20 100 100 Calm 30.08 1019 10 16 0.00 0.00
9:53 am 09:53 Cloudy 71 21.7 70 21.1 96 96 Calm 30.09 1019 10 16 0.00 0.00
10:53 am 10:53 Mostly Cloudy 77 25 71 21.7 82 82 Calm 30.09 1019 10 16 0.00 0.00
11:53 am 11:53 Mostly Sunny 81 27.2 68 20 65 65 Calm 30.09 1019 10 16 0.00 0.00
12:53 pm 12:53 Sunny 84 28.9 67 19.4 57 57 Calm 30.07 1018 10 16 0.00 0.00
1:53 pm 13:53 Sunny 86 30 68 20 55 55 VRB 5 7 30.06 1018 10 16 0.00 0.00
2:53 pm 14:53 Sunny 87 30.6 68 20 53 53 VRB 3 6 30.03 1017 10 16 0.00 0.00
3:53 pm 15:53 Sunny 88 31.1 68 20 52 52 W 3 6 30.01 1016 10 16 0.00 0.00
4:53 pm 16:53 Sunny 89 31.7 68 20 50 50 Calm 30.00 1016 10 16 0.00 0.00
5:53 pm 17:53 Sunny 88 31.1 67 19.4 50 50 Calm 29.99 1016 10 16 0.00 0.00
6:53 pm 18:53 Sunny 87 30.6 66 18.9 50 50 SSW 3 6 30.00 1016 10 16 0.00 0.00
7:53 pm 19:53 Sunny 81 27.2 70 21.1 69 69 Calm 30.00 1016 10 16 0.00 0.00
8:53 pm 20:53 Sunny 73 22.8 72 22.2 96 96 Calm 30.01 1016 10 16 0.00 0.00
9:53 pm 21:53 Clear 71 21.7 70 21.1 96 96 Calm 30.03 1017 10 16 0.00 0.00
10:53 pm 22:53 Clear 74 23.3 71 21.7 91 91 Calm 30.04 1017 10 16 0.00 0.00
11:53 pm 23:53 Clear 73 22.8 72 22.2 96 96 Calm 30.04 1017 10 16 0.00 0.00

Powered by AerisWeather